[[{"header":{"parameterUnit":"m.s-1","parameterCategory":1,"la1":30.2992,"la2":30.254,"lo1":-89.0895,"lo2":-89.0443,"dy":0.0025,"dx":0.0025,"nx":19,"ny":19,"refTime":"2026-05-15T09:00:00:Z","depth":0,"parameterNumber":2,"parameterNumberName":"U-component_of_WINDS"},"data":[0,0,0,-0.7324,-0.7322,-0.7235,-0.7235,-0.7142,-0.7141,0,0,0,0,0,0,0,0,0,0,0,-0.7361,-0.7361,-0.7324,-0.7322,-0.7235,-0.7235,-0.7142,-0.7141,0,0,0,0,0,0,0,0,0,0,0,-0.7362,-0.7361,-0.7361,-0.7322,-0.7235,-0.7235,-0.7142,-0.7201,0,0,0,0,0,0,0,0,0,0,-0.7282,-0.7329,-0.7361,-0.7361,-0.7321,-0.7236,-0.7235,-0.7203,-0.7197,-0.7189,0,-0.7186,0,-0.7162,-0.7136,-0.7136,0,0,0,-0.7313,-0.7334,-0.73,-0.7361,-0.7321,-0.7236,-0.7272,-0.72,-0.7193,-0.7181,-0.7185,-0.7181,-0.7161,-0.7136,-0.7135,-0.7121,-0.7121,0,0,-0.7318,-0.7352,-0.7305,-0.7296,-0.7312,-0.7275,-0.7269,-0.7195,-0.7201,-0.7184,-0.7178,-0.7159,-0.7135,-0.7135,-0.712,-0.7121,0,0,0,-0.7338,-0.7356,-0.7323,-0.73,-0.7284,-0.7272,-0.7266,-0.7204,-0.7191,-0.7177,-0.7158,-0.7135,-0.7134,-0.712,-0.712,-0.7172,0,0,0,-0.734,-0.7368,-0.7326,-0.7346,-0.7285,-0.7243,-0.7277,-0.7196,-0.7186,-0.7159,-0.7135,-0.7133,-0.7119,-0.712,-0.7169,-0.719,0,0,0,-0.7363,-0.737,-0.7362,-0.7348,-0.7312,-0.7243,-0.7225,-0.7193,-0.7175,-0.7136,-0.7133,-0.7119,-0.712,-0.7167,-0.7187,-0.7195,0,0,0,-0.7397,-0.7409,-0.7363,-0.7369,-0.7313,-0.7276,-0.7225,-0.7196,-0.7168,-0.7134,-0.7119,-0.712,-0.7167,-0.7184,-0.7194,-0.7209,-0.7219,0,0,-0.7431,-0.7415,-0.7415,-0.7371,-0.7352,-0.7287,-0.7274,-0.7216,-0.718,-0.7142,-0.7141,-0.717,-0.7186,-0.7195,-0.7264,-0.7272,0,0,0,-0.7437,-0.7438,-0.7425,-0.7401,-0.7357,-0.732,-0.726,-0.7238,-0.7204,-0.7168,-0.7175,-0.7184,-0.7187,-0.7193,-0.72,-0.72,-0.7125,-0.7125,-0.7125,-0.7535,-0.7489,-0.7486,-0.7429,-0.7406,-0.7343,-0.7319,-0.7278,-0.7239,-0.7241,-0.7229,-0.7277,-0.7285,-0.729,-0.7291,-0.7234,-0.7234,-0.7235,-0.7235,-0.758,-0.7573,-0.7519,-0.7497,-0.7448,-0.7428,-0.7367,-0.734,-0.7313,-0.7282,-0.7283,-0.7252,-0.73,-0.7298,-0.7238,-0.7237,-0.7237,-0.7237,-0.7236,-0.7639,-0.7627,-0.76,-0.7559,-0.7532,-0.7473,-0.745,-0.7405,-0.7363,-0.7364,-0.7346,-0.7345,-0.7338,-0.7359,-0.7359,-0.7359,-0.7359,-0.7359,-0.7359,-0.771,-0.7678,-0.7664,-0.7617,-0.7595,-0.7559,-0.7496,-0.7472,-0.7434,-0.7403,-0.7402,-0.7362,-0.7314,-0.7302,-0.7362,-0.7361,-0.7361,-0.7361,-0.7361,-0.7771,-0.775,-0.7729,-0.7707,-0.7647,-0.7622,-0.7566,-0.7521,-0.7494,-0.7484,-0.7442,-0.7415,-0.7394,-0.7388,-0.7378,-0.7453,-0.7453,-0.7453,-0.7453,-0.782,-0.7805,-0.7773,-0.774,-0.7702,-0.7648,-0.7624,-0.7574,-0.7518,-0.7499,-0.7481,-0.7464,-0.7461,-0.7442,-0.7435,-0.7425,-0.751,-0.751,-0.751,-0.7855,-0.7834,-0.7823,-0.7769,-0.7719,-0.7676,-0.7652,-0.7614,-0.7547,-0.7512,-0.7482,-0.748,-0.7452,-0.7445,-0.741,-0.7401,-0.7381,0,0]},{"header":{"parameterUnit":"m.s-1","parameterCategory":1,"la1":30.2992,"la2":30.254,"lo1":-89.0895,"lo2":-89.0443,"dy":0.0025,"dx":0.0025,"nx":19,"ny":19,"refTime":"2026-05-15T09:00:00:Z","depth":0,"parameterNumber":3,"parameterNumberName":"V-component_of_WINDS"},"data":[0,0,0,-2.4704,-2.4705,-2.4748,-2.4748,-2.4797,-2.4798,0,0,0,0,0,0,0,0,0,0,0,-2.469,-2.469,-2.4704,-2.4705,-2.4748,-2.4748,-2.4797,-2.4798,0,0,0,0,0,0,0,0,0,0,0,-2.469,-2.469,-2.4691,-2.4705,-2.4748,-2.4748,-2.4797,-2.4766,0,0,0,0,0,0,0,0,0,0,-2.4725,-2.4711,-2.469,-2.4691,-2.4706,-2.4748,-2.4748,-2.4765,-2.4768,-2.4776,0,-2.4785,0,-2.4792,-2.4801,-2.4801,0,0,0,-2.4706,-2.4709,-2.4722,-2.4691,-2.4706,-2.4748,-2.4729,-2.4767,-2.4771,-2.4781,-2.4785,-2.4787,-2.4793,-2.4801,-2.4802,-2.485,-2.485,0,0,-2.4703,-2.4696,-2.4719,-2.4724,-2.472,-2.4727,-2.473,-2.4769,-2.4773,-2.4786,-2.4789,-2.4794,-2.4802,-2.4802,-2.485,-2.485,0,0,0,-2.4696,-2.4695,-2.4707,-2.4722,-2.473,-2.4729,-2.4732,-2.4771,-2.4776,-2.4789,-2.4794,-2.4802,-2.4802,-2.485,-2.485,-2.4854,0,0,0,-2.4695,-2.469,-2.4706,-2.4702,-2.473,-2.4752,-2.4733,-2.4773,-2.4778,-2.4794,-2.4802,-2.4803,-2.485,-2.485,-2.4853,-2.4856,0,0,0,-2.4687,-2.469,-2.4696,-2.4702,-2.472,-2.4751,-2.4758,-2.4775,-2.4781,-2.4801,-2.4803,-2.4849,-2.485,-2.4853,-2.4855,-2.4866,0,0,0,-2.4677,-2.4697,-2.4696,-2.472,-2.472,-2.4754,-2.4758,-2.4784,-2.4802,-2.4802,-2.485,-2.485,-2.4852,-2.4855,-2.4866,-2.4874,-2.4877,0,0,-2.4699,-2.47,-2.4715,-2.4714,-2.4748,-2.4748,-2.4782,-2.4803,-2.481,-2.4836,-2.4837,-2.4853,-2.4855,-2.4866,-2.4899,-2.4901,0,0,0,-2.4719,-2.473,-2.474,-2.4758,-2.4776,-2.4791,-2.4809,-2.4817,-2.484,-2.4823,-2.4861,-2.4862,-2.4869,-2.4873,-2.4875,-2.4881,-2.4852,-2.4852,-2.4852,-2.4738,-2.4748,-2.4773,-2.4788,-2.4805,-2.4824,-2.4837,-2.4851,-2.4855,-2.4864,-2.4871,-2.489,-2.4894,-2.4896,-2.4902,-2.4877,-2.4877,-2.4877,-2.4877,-2.4769,-2.4785,-2.4792,-2.4818,-2.4828,-2.4849,-2.4868,-2.487,-2.489,-2.4885,-2.4891,-2.4884,-2.4898,-2.4904,-2.4877,-2.4877,-2.4877,-2.4877,-2.4877,-2.4782,-2.4791,-2.4802,-2.4829,-2.4848,-2.4862,-2.4882,-2.4889,-2.4897,-2.4903,-2.4911,-2.4911,-2.4911,-2.4907,-2.4907,-2.4907,-2.4907,-2.4907,-2.4907,-2.479,-2.4802,-2.4819,-2.4841,-2.4853,-2.487,-2.489,-2.4901,-2.4916,-2.492,-2.492,-2.4922,-2.4899,-2.4892,-2.4908,-2.4908,-2.4908,-2.4908,-2.4908,-2.4815,-2.4811,-2.4837,-2.485,-2.4876,-2.4894,-2.4904,-2.4927,-2.4938,-2.4947,-2.4949,-2.4931,-2.4932,-2.493,-2.4924,-2.4948,-2.4948,-2.4948,-2.4948,-2.4825,-2.4827,-2.4855,-2.4875,-2.4895,-2.4907,-2.4934,-2.4949,-2.4963,-2.497,-2.4968,-2.4962,-2.496,-2.4962,-2.496,-2.4954,-2.4985,-2.4985,-2.4985,-2.4841,-2.4845,-2.4867,-2.4884,-2.4905,-2.4923,-2.4948,-2.4968,-2.4983,-2.4987,-2.4976,-2.4974,-2.4964,-2.496,-2.4962,-2.4958,-2.4949,0,0]}]]